owner,sensor,date,latitude,longitude,air_pressure(mBar),qcFlag 
COMPS,ioos:station:USF.COMPS:C10:1,2016-06-01T00:05:00Z,27.1690,-82.9260,1027.92,1111122 
COMPS,ioos:station:USF.COMPS:C10:1,2016-06-01T00:35:00Z,27.1690,-82.9260,1027.93,1111122 
COMPS,ioos:station:USF.COMPS:C10:1,2016-06-01T01:05:00Z,27.1690,-82.9260,1027.92,1111122 
COMPS,ioos:station:USF.COMPS:C10:1,2016-06-01T01:35:00Z,27.1690,-82.9260,1027.88,1111122 
COMPS,ioos:station:USF.COMPS:C10:1,2016-06-01T05:05:00Z,27.1690,-82.9260,1028.94,1111122 
COMPS,ioos:station:USF.COMPS:C10:1,2016-06-01T05:35:00Z,27.1690,-82.9260,1028.74,1111122 
COMPS,ioos:station:USF.COMPS:C10:1,2016-06-01T07:05:00Z,27.1690,-82.9260,1028.5,1111122 
COMPS,ioos:station:USF.COMPS:C10:1,2016-06-01T07:35:00Z,27.1690,-82.9260,1028.54,1111122 
COMPS,ioos:station:USF.COMPS:C10:1,2016-06-01T08:05:00Z,27.1690,-82.9260,1028.37,1111122 
COMPS,ioos:station:USF.COMPS:C10:1,2016-06-01T08:35:00Z,27.1690,-82.9260,1028.37,1111122 
COMPS,ioos:station:USF.COMPS:C10:1,2016-06-01T09:05:00Z,27.1690,-82.9260,1028.56,1111122 
COMPS,ioos:station:USF.COMPS:C10:1,2016-06-01T09:35:00Z,27.1690,-82.9260,1028.75,1111122 
COMPS,ioos:station:USF.COMPS:C10:1,2016-06-01T11:05:00Z,27.1690,-82.9260,1029.27,1111122 
COMPS,ioos:station:USF.COMPS:C10:1,2016-06-01T11:35:00Z,27.1690,-82.9260,1029.33,1111122 
COMPS,ioos:station:USF.COMPS:C10:1,2016-06-01T13:05:00Z,27.1690,-82.9260,1030.2,1111122 
COMPS,ioos:station:USF.COMPS:C10:1,2016-06-01T13:35:00Z,27.1690,-82.9260,1030.27,1111122 
COMPS,ioos:station:USF.COMPS:C10:1,2016-06-01T14:05:00Z,27.1690,-82.9260,1030.52,1111122 
COMPS,ioos:station:USF.COMPS:C10:1,2016-06-01T14:35:00Z,27.1690,-82.9260,1030.44,1111122 
COMPS,ioos:station:USF.COMPS:C10:1,2016-06-01T15:05:00Z,27.1690,-82.9260,1030.76,1111122 
COMPS,ioos:station:USF.COMPS:C10:1,2016-06-01T15:35:00Z,27.1690,-82.9260,1030.75,1111122 
COMPS,ioos:station:USF.COMPS:C10:1,2016-06-01T16:05:00Z,27.1690,-82.9260,1030.74,1111122 
COMPS,ioos:station:USF.COMPS:C10:1,2016-06-01T16:35:00Z,27.1690,-82.9260,1030.74,1111122 
COMPS,ioos:station:USF.COMPS:C10:1,2016-06-01T17:05:00Z,27.1690,-82.9260,1030.58,1111122 
COMPS,ioos:station:USF.COMPS:C10:1,2016-06-01T17:35:00Z,27.1690,-82.9260,1030.24,1111122 
COMPS,ioos:station:USF.COMPS:C10:1,2016-06-01T18:05:00Z,27.1690,-82.9260,1030.2,1111122 
COMPS,ioos:station:USF.COMPS:C10:1,2016-06-01T18:35:00Z,27.1690,-82.9260,1030.07,1111122 
COMPS,ioos:station:USF.COMPS:C10:1,2016-06-01T19:05:00Z,27.1690,-82.9260,1029.69,1111122 
COMPS,ioos:station:USF.COMPS:C10:1,2016-06-01T19:35:00Z,27.1690,-82.9260,1029.69,1111122 
COMPS,ioos:station:USF.COMPS:C10:1,2016-06-01T20:05:00Z,27.1690,-82.9260,1029.47,1111122 
COMPS,ioos:station:USF.COMPS:C10:1,2016-06-01T20:35:00Z,27.1690,-82.9260,1029.32,1111122 
COMPS,ioos:station:USF.COMPS:C10:1,2016-06-01T21:05:00Z,27.1690,-82.9260,1029.25,1111122 
COMPS,ioos:station:USF.COMPS:C10:1,2016-06-01T21:35:00Z,27.1690,-82.9260,1029.17,1111122 
COMPS,ioos:station:USF.COMPS:C10:1,2016-06-01T22:05:00Z,27.1690,-82.9260,1028.93,1111122 
COMPS,ioos:station:USF.COMPS:C10:1,2016-06-01T22:35:00Z,27.1690,-82.9260,1028.86,1111122 
COMPS,ioos:station:USF.COMPS:C10:1,2016-06-01T23:05:00Z,27.1690,-82.9260,1028.86,1111122 
COMPS,ioos:station:USF.COMPS:C10:1,2016-06-01T23:35:00Z,27.1690,-82.9260,1028.92,1111122 
COMPS,ioos:station:USF.COMPS:C10:1,2016-06-02T00:05:00Z,27.1690,-82.9260,1029.18,1111122 
COMPS,ioos:station:USF.COMPS:C10:1,2016-06-02T00:35:00Z,27.1690,-82.9260,1029.28,1111122 
COMPS,ioos:station:USF.COMPS:C10:1,2016-06-02T01:05:00Z,27.1690,-82.9260,1029.57,1111122 
COMPS,ioos:station:USF.COMPS:C10:1,2016-06-02T01:35:00Z,27.1690,-82.9260,1030.03,1111122 
COMPS,ioos:station:USF.COMPS:C10:1,2016-06-02T02:05:00Z,27.1690,-82.9260,1029.93,1111122 
COMPS,ioos:station:USF.COMPS:C10:1,2016-06-02T02:35:00Z,27.1690,-82.9260,1029.91,1111122 
COMPS,ioos:station:USF.COMPS:C10:1,2016-06-02T05:05:00Z,27.1690,-82.9260,1030.11,1111122 
COMPS,ioos:station:USF.COMPS:C10:1,2016-06-02T05:35:00Z,27.1690,-82.9260,1030.07,1111122 
COMPS,ioos:station:USF.COMPS:C10:1,2016-06-02T06:05:00Z,27.1690,-82.9260,1029.94,1111122 
COMPS,ioos:station:USF.COMPS:C10:1,2016-06-02T06:35:00Z,27.1690,-82.9260,1029.59,1111122 
COMPS,ioos:station:USF.COMPS:C10:1,2016-06-02T07:05:00Z,27.1690,-82.9260,1029.53,1111122 
COMPS,ioos:station:USF.COMPS:C10:1,2016-06-02T07:35:00Z,27.1690,-82.9260,1029.57,1111122 
COMPS,ioos:station:USF.COMPS:C10:1,2016-06-02T08:05:00Z,27.1690,-82.9260,1029.49,1111122 
COMPS,ioos:station:USF.COMPS:C10:1,2016-06-02T08:35:00Z,27.1690,-82.9260,1029.53,1111122 
COMPS,ioos:station:USF.COMPS:C10:1,2016-06-02T09:05:00Z,27.1690,-82.9260,1029.67,1111122 
COMPS,ioos:station:USF.COMPS:C10:1,2016-06-02T09:35:00Z,27.1690,-82.9260,1029.91,1111122 
COMPS,ioos:station:USF.COMPS:C10:1,2016-06-02T10:05:00Z,27.1690,-82.9260,1030.13,1111122 
COMPS,ioos:station:USF.COMPS:C10:1,2016-06-02T10:35:00Z,27.1690,-82.9260,1030.33,1111122 
COMPS,ioos:station:USF.COMPS:C10:1,2016-06-02T11:05:00Z,27.1690,-82.9260,1030.67,1111122 
COMPS,ioos:station:USF.COMPS:C10:1,2016-06-02T11:35:00Z,27.1690,-82.9260,1030.7,1111122 
COMPS,ioos:station:USF.COMPS:C10:1,2016-06-02T12:05:00Z,27.1690,-82.9260,1030.86,1111122 
COMPS,ioos:station:USF.COMPS:C10:1,2016-06-02T12:35:00Z,27.1690,-82.9260,1031.16,1111122 
COMPS,ioos:station:USF.COMPS:C10:1,2016-06-02T13:05:00Z,27.1690,-82.9260,1031.51,1111122 
COMPS,ioos:station:USF.COMPS:C10:1,2016-06-02T13:35:00Z,27.1690,-82.9260,1031.57,1111122 
COMPS,ioos:station:USF.COMPS:C10:1,2016-06-02T14:05:00Z,27.1690,-82.9260,1031.54,1111122 
COMPS,ioos:station:USF.COMPS:C10:1,2016-06-02T14:35:00Z,27.1690,-82.9260,1031.61,1111122 
COMPS,ioos:station:USF.COMPS:C10:1,2016-06-02T15:05:00Z,27.1690,-82.9260,1031.68,1111122 
COMPS,ioos:station:USF.COMPS:C10:1,2016-06-02T15:35:00Z,27.1690,-82.9260,1031.95,1111122 
COMPS,ioos:station:USF.COMPS:C10:1,2016-06-02T17:05:00Z,27.1690,-82.9260,1031.81,1111122 
COMPS,ioos:station:USF.COMPS:C10:1,2016-06-02T17:35:00Z,27.1690,-82.9260,1031.68,1111122 
COMPS,ioos:station:USF.COMPS:C10:1,2016-06-02T18:05:00Z,27.1690,-82.9260,1031.55,1111122 
COMPS,ioos:station:USF.COMPS:C10:1,2016-06-02T18:35:00Z,27.1690,-82.9260,1031.35,1111122 
COMPS,ioos:station:USF.COMPS:C10:1,2016-06-02T20:05:00Z,27.1690,-82.9260,1030.2,1111122 
COMPS,ioos:station:USF.COMPS:C10:1,2016-06-02T20:35:00Z,27.1690,-82.9260,1029.94,1111122 
COMPS,ioos:station:USF.COMPS:C10:1,2016-06-02T21:05:00Z,27.1690,-82.9260,1029.72,1111122 
COMPS,ioos:station:USF.COMPS:C10:1,2016-06-02T21:35:00Z,27.1690,-82.9260,1029.65,1111122 
COMPS,ioos:station:USF.COMPS:C10:1,2016-06-02T22:05:00Z,27.1690,-82.9260,1029.5,1111122 
COMPS,ioos:station:USF.COMPS:C10:1,2016-06-02T22:35:00Z,27.1690,-82.9260,1029.37,1111122 
COMPS,ioos:station:USF.COMPS:C10:1,2016-06-02T23:05:00Z,27.1690,-82.9260,1029.37,1111122 
COMPS,ioos:station:USF.COMPS:C10:1,2016-06-02T23:35:00Z,27.1690,-82.9260,1029.64,1111122 
COMPS,ioos:station:USF.COMPS:C10:1,2016-06-03T00:05:00Z,27.1690,-82.9260,1029.8,1111122 
COMPS,ioos:station:USF.COMPS:C10:1,2016-06-03T00:35:00Z,27.1690,-82.9260,1030.04,1111122 
COMPS,ioos:station:USF.COMPS:C10:1,2016-06-03T01:05:00Z,27.1690,-82.9260,1030.31,1111122 
COMPS,ioos:station:USF.COMPS:C10:1,2016-06-03T01:35:00Z,27.1690,-82.9260,1030.6,1111122 
COMPS,ioos:station:USF.COMPS:C10:1,2016-06-03T02:05:00Z,27.1690,-82.9260,1030.56,1111122 
COMPS,ioos:station:USF.COMPS:C10:1,2016-06-03T02:35:00Z,27.1690,-82.9260,1031.15,1111122 
COMPS,ioos:station:USF.COMPS:C10:1,2016-06-03T03:05:00Z,27.1690,-82.9260,1031.41,1111122 
COMPS,ioos:station:USF.COMPS:C10:1,2016-06-03T03:35:00Z,27.1690,-82.9260,1031.55,1111122 
COMPS,ioos:station:USF.COMPS:C10:1,2016-06-03T04:05:00Z,27.1690,-82.9260,1031.56,1111122 
COMPS,ioos:station:USF.COMPS:C10:1,2016-06-03T04:35:00Z,27.1690,-82.9260,1031.57,1111122 
COMPS,ioos:station:USF.COMPS:C10:1,2016-06-03T05:05:00Z,27.1690,-82.9260,1031.6,1111122 
COMPS,ioos:station:USF.COMPS:C10:1,2016-06-03T05:35:00Z,27.1690,-82.9260,1031.2,1111122 
COMPS,ioos:station:USF.COMPS:C10:1,2016-06-03T06:05:00Z,27.1690,-82.9260,1031.08,1111122 
COMPS,ioos:station:USF.COMPS:C10:1,2016-06-03T06:35:00Z,27.1690,-82.9260,1030.99,1111122 
COMPS,ioos:station:USF.COMPS:C10:1,2016-06-03T09:05:00Z,27.1690,-82.9260,1030.51,1111122 
COMPS,ioos:station:USF.COMPS:C10:1,2016-06-03T09:35:00Z,27.1690,-82.9260,1030.45,1111122 
COMPS,ioos:station:USF.COMPS:C10:1,2016-06-03T10:05:00Z,27.1690,-82.9260,1030.6,1111122 
COMPS,ioos:station:USF.COMPS:C10:1,2016-06-03T10:35:00Z,27.1690,-82.9260,1030.67,1111122 
COMPS,ioos:station:USF.COMPS:C10:1,2016-06-03T11:05:00Z,27.1690,-82.9260,1030.81,1111122 
COMPS,ioos:station:USF.COMPS:C10:1,2016-06-03T11:35:00Z,27.1690,-82.9260,1030.85,1111122 
COMPS,ioos:station:USF.COMPS:C10:1,2016-06-03T12:05:00Z,27.1690,-82.9260,1030.92,1111122 
COMPS,ioos:station:USF.COMPS:C10:1,2016-06-03T12:35:00Z,27.1690,-82.9260,1031.06,1111122 
COMPS,ioos:station:USF.COMPS:C10:1,2016-06-03T13:05:00Z,27.1690,-82.9260,1031.18,1111122 
COMPS,ioos:station:USF.COMPS:C10:1,2016-06-03T13:35:00Z,27.1690,-82.9260,1031.11,1111122 
COMPS,ioos:station:USF.COMPS:C10:1,2016-06-03T14:05:00Z,27.1690,-82.9260,1031.12,1111122 
COMPS,ioos:station:USF.COMPS:C10:1,2016-06-03T14:35:00Z,27.1690,-82.9260,1031.2,1111122 
COMPS,ioos:station:USF.COMPS:C10:1,2016-06-03T15:05:00Z,27.1690,-82.9260,1031.28,1111122 
COMPS,ioos:station:USF.COMPS:C10:1,2016-06-03T15:35:00Z,27.1690,-82.9260,1031.29,1111122 
COMPS,ioos:station:USF.COMPS:C10:1,2016-06-03T16:05:00Z,27.1690,-82.9260,1031.25,1111122 
COMPS,ioos:station:USF.COMPS:C10:1,2016-06-03T16:35:00Z,27.1690,-82.9260,1031.14,1111122 
COMPS,ioos:station:USF.COMPS:C10:1,2016-06-03T17:05:00Z,27.1690,-82.9260,1031.11,1111122 
COMPS,ioos:station:USF.COMPS:C10:1,2016-06-03T17:35:00Z,27.1690,-82.9260,1031.09,1111122 
COMPS,ioos:station:USF.COMPS:C10:1,2016-06-03T18:05:00Z,27.1690,-82.9260,1030.88,1111122 
COMPS,ioos:station:USF.COMPS:C10:1,2016-06-03T18:35:00Z,27.1690,-82.9260,1030.74,1111122 
COMPS,ioos:station:USF.COMPS:C10:1,2016-06-03T21:05:00Z,27.1690,-82.9260,1029.72,1111122 
COMPS,ioos:station:USF.COMPS:C10:1,2016-06-03T21:35:00Z,27.1690,-82.9260,1029.61,1111122 
COMPS,ioos:station:USF.COMPS:C10:1,2016-06-03T22:05:00Z,27.1690,-82.9260,1029.4,1111122 
COMPS,ioos:station:USF.COMPS:C10:1,2016-06-03T22:35:00Z,27.1690,-82.9260,1029.4,1111122 
COMPS,ioos:station:USF.COMPS:C10:1,2016-06-03T23:05:00Z,27.1690,-82.9260,1029.4,1111122 
COMPS,ioos:station:USF.COMPS:C10:1,2016-06-03T23:35:00Z,27.1690,-82.9260,1029.58,1111122 
COMPS,ioos:station:USF.COMPS:C10:1,2016-06-04T00:05:00Z,27.1690,-82.9260,1029.79,1111122 
COMPS,ioos:station:USF.COMPS:C10:1,2016-06-04T00:35:00Z,27.1690,-82.9260,1030.03,1111122 
COMPS,ioos:station:USF.COMPS:C10:1,2016-06-04T01:05:00Z,27.1690,-82.9260,1030.22,1111122 
COMPS,ioos:station:USF.COMPS:C10:1,2016-06-04T01:35:00Z,27.1690,-82.9260,1030.71,1111122 
COMPS,ioos:station:USF.COMPS:C10:1,2016-06-04T02:05:00Z,27.1690,-82.9260,1030.6,1111122 
COMPS,ioos:station:USF.COMPS:C10:1,2016-06-04T02:35:00Z,27.1690,-82.9260,1030.93,1111122 
COMPS,ioos:station:USF.COMPS:C10:1,2016-06-04T03:05:00Z,27.1690,-82.9260,1031.38,1111122 
COMPS,ioos:station:USF.COMPS:C10:1,2016-06-04T03:35:00Z,27.1690,-82.9260,1031.54,1111122 
COMPS,ioos:station:USF.COMPS:C10:1,2016-06-04T04:05:00Z,27.1690,-82.9260,1031.52,1111122 
COMPS,ioos:station:USF.COMPS:C10:1,2016-06-04T04:35:00Z,27.1690,-82.9260,1031.1,1111122 
COMPS,ioos:station:USF.COMPS:C10:1,2016-06-04T05:05:00Z,27.1690,-82.9260,1030.8,1111122 
COMPS,ioos:station:USF.COMPS:C10:1,2016-06-04T05:35:00Z,27.1690,-82.9260,1030.65,1111122 
COMPS,ioos:station:USF.COMPS:C10:1,2016-06-04T06:05:00Z,27.1690,-82.9260,1030.65,1111122 
COMPS,ioos:station:USF.COMPS:C10:1,2016-06-04T06:35:00Z,27.1690,-82.9260,1030.33,1111122 
COMPS,ioos:station:USF.COMPS:C10:1,2016-06-04T07:05:00Z,27.1690,-82.9260,1030.19,1111122 
COMPS,ioos:station:USF.COMPS:C10:1,2016-06-04T07:35:00Z,27.1690,-82.9260,1030.02,1111122 
COMPS,ioos:station:USF.COMPS:C10:1,2016-06-04T08:05:00Z,27.1690,-82.9260,1030.07,1111122 
COMPS,ioos:station:USF.COMPS:C10:1,2016-06-04T08:35:00Z,27.1690,-82.9260,1029.77,1111122 
COMPS,ioos:station:USF.COMPS:C10:1,2016-06-04T09:05:00Z,27.1690,-82.9260,1029.56,1111122 
COMPS,ioos:station:USF.COMPS:C10:1,2016-06-04T09:35:00Z,27.1690,-82.9260,1029.71,1111122 
COMPS,ioos:station:USF.COMPS:C10:1,2016-06-04T10:05:00Z,27.1690,-82.9260,1029.79,1111122 
COMPS,ioos:station:USF.COMPS:C10:1,2016-06-04T10:35:00Z,27.1690,-82.9260,1029.89,1111122 
COMPS,ioos:station:USF.COMPS:C10:1,2016-06-04T11:05:00Z,27.1690,-82.9260,1030.05,1111122 
COMPS,ioos:station:USF.COMPS:C10:1,2016-06-04T11:35:00Z,27.1690,-82.9260,1030.12,1111122 
COMPS,ioos:station:USF.COMPS:C10:1,2016-06-04T12:05:00Z,27.1690,-82.9260,1030.16,1111122 
COMPS,ioos:station:USF.COMPS:C10:1,2016-06-04T12:35:00Z,27.1690,-82.9260,1030.07,1111122 
COMPS,ioos:station:USF.COMPS:C10:1,2016-06-04T13:05:00Z,27.1690,-82.9260,1030.07,1111122 
COMPS,ioos:station:USF.COMPS:C10:1,2016-06-04T13:35:00Z,27.1690,-82.9260,1030.2,1111122 
COMPS,ioos:station:USF.COMPS:C10:1,2016-06-04T14:05:00Z,27.1690,-82.9260,1030.2,1111122 
COMPS,ioos:station:USF.COMPS:C10:1,2016-06-04T14:35:00Z,27.1690,-82.9260,1030.2,1111122 
COMPS,ioos:station:USF.COMPS:C10:1,2016-06-04T15:05:00Z,27.1690,-82.9260,1030.2,1111122 
COMPS,ioos:station:USF.COMPS:C10:1,2016-06-04T15:35:00Z,27.1690,-82.9260,1030.2,1111122 
COMPS,ioos:station:USF.COMPS:C10:1,2016-06-04T16:05:00Z,27.1690,-82.9260,1030.09,1111122 
COMPS,ioos:station:USF.COMPS:C10:1,2016-06-04T16:35:00Z,27.1690,-82.9260,1029.97,1111122 
COMPS,ioos:station:USF.COMPS:C10:1,2016-06-04T17:05:00Z,27.1690,-82.9260,1029.67,1111122 
COMPS,ioos:station:USF.COMPS:C10:1,2016-06-04T17:35:00Z,27.1690,-82.9260,1029.5,1111122 
COMPS,ioos:station:USF.COMPS:C10:1,2016-06-04T18:05:00Z,27.1690,-82.9260,1029.27,1111122 
COMPS,ioos:station:USF.COMPS:C10:1,2016-06-04T18:35:00Z,27.1690,-82.9260,1029.03,1111122 
COMPS,ioos:station:USF.COMPS:C10:1,2016-06-04T19:05:00Z,27.1690,-82.9260,1028.95,1111122 
COMPS,ioos:station:USF.COMPS:C10:1,2016-06-04T19:35:00Z,27.1690,-82.9260,1028.8,1111122 
COMPS,ioos:station:USF.COMPS:C10:1,2016-06-04T21:05:00Z,27.1690,-82.9260,1027.92,1111122 
COMPS,ioos:station:USF.COMPS:C10:1,2016-06-04T21:35:00Z,27.1690,-82.9260,1027.81,1111122 
COMPS,ioos:station:USF.COMPS:C10:1,2016-06-04T22:05:00Z,27.1690,-82.9260,1027.52,1111122 
COMPS,ioos:station:USF.COMPS:C10:1,2016-06-04T22:35:00Z,27.1690,-82.9260,1027.48,1111122 
COMPS,ioos:station:USF.COMPS:C10:1,2016-06-04T23:05:00Z,27.1690,-82.9260,1027.38,1111122 
COMPS,ioos:station:USF.COMPS:C10:1,2016-06-04T23:35:00Z,27.1690,-82.9260,1027.52,1111122 
COMPS,ioos:station:USF.COMPS:C10:1,2016-06-05T00:05:00Z,27.1690,-82.9260,1027.68,1111122 
COMPS,ioos:station:USF.COMPS:C10:1,2016-06-05T00:35:00Z,27.1690,-82.9260,1027.95,1111122 
COMPS,ioos:station:USF.COMPS:C10:1,2016-06-05T01:05:00Z,27.1690,-82.9260,1027.96,1111122 
COMPS,ioos:station:USF.COMPS:C10:1,2016-06-05T01:35:00Z,27.1690,-82.9260,1028.47,1111122 
COMPS,ioos:station:USF.COMPS:C10:1,2016-06-05T02:05:00Z,27.1690,-82.9260,1027.73,1111122 
COMPS,ioos:station:USF.COMPS:C10:1,2016-06-05T02:35:00Z,27.1690,-82.9260,1028.28,1111122 
COMPS,ioos:station:USF.COMPS:C10:1,2016-06-05T03:05:00Z,27.1690,-82.9260,1028.38,1111122 
COMPS,ioos:station:USF.COMPS:C10:1,2016-06-05T03:35:00Z,27.1690,-82.9260,1028.4,1111122 
COMPS,ioos:station:USF.COMPS:C10:1,2016-06-05T04:05:00Z,27.1690,-82.9260,1028.4,1111122 
COMPS,ioos:station:USF.COMPS:C10:1,2016-06-05T04:35:00Z,27.1690,-82.9260,1028.3,1111122 
COMPS,ioos:station:USF.COMPS:C10:1,2016-06-05T05:05:00Z,27.1690,-82.9260,1027.88,1111122 
COMPS,ioos:station:USF.COMPS:C10:1,2016-06-05T05:35:00Z,27.1690,-82.9260,1027.66,1111122 
COMPS,ioos:station:USF.COMPS:C10:1,2016-06-05T06:05:00Z,27.1690,-82.9260,1027.37,1111122 
COMPS,ioos:station:USF.COMPS:C10:1,2016-06-05T06:35:00Z,27.1690,-82.9260,1027.21,1111122 
COMPS,ioos:station:USF.COMPS:C10:1,2016-06-05T07:05:00Z,27.1690,-82.9260,1026.98,1111122 
COMPS,ioos:station:USF.COMPS:C10:1,2016-06-05T07:35:00Z,27.1690,-82.9260,1026.6,1111122 
COMPS,ioos:station:USF.COMPS:C10:1,2016-06-05T08:05:00Z,27.1690,-82.9260,1026.45,1111122 
COMPS,ioos:station:USF.COMPS:C10:1,2016-06-05T08:35:00Z,27.1690,-82.9260,1026.23,1111122 
COMPS,ioos:station:USF.COMPS:C10:1,2016-06-05T09:05:00Z,27.1690,-82.9260,1026.15,1111122 
COMPS,ioos:station:USF.COMPS:C10:1,2016-06-05T09:35:00Z,27.1690,-82.9260,1026.1,1111122 
COMPS,ioos:station:USF.COMPS:C10:1,2016-06-05T10:05:00Z,27.1690,-82.9260,1026.11,1111122 
COMPS,ioos:station:USF.COMPS:C10:1,2016-06-05T10:35:00Z,27.1690,-82.9260,1026.3,1111122 
COMPS,ioos:station:USF.COMPS:C10:1,2016-06-05T11:05:00Z,27.1690,-82.9260,1026.49,1111122 
COMPS,ioos:station:USF.COMPS:C10:1,2016-06-05T11:35:00Z,27.1690,-82.9260,1026.8,1111122 
COMPS,ioos:station:USF.COMPS:C10:1,2016-06-05T12:05:00Z,27.1690,-82.9260,1026.97,1111122 
COMPS,ioos:station:USF.COMPS:C10:1,2016-06-05T12:35:00Z,27.1690,-82.9260,1026.9,1111122 
COMPS,ioos:station:USF.COMPS:C10:1,2016-06-05T13:05:00Z,27.1690,-82.9260,1027.12,1111122 
COMPS,ioos:station:USF.COMPS:C10:1,2016-06-05T13:35:00Z,27.1690,-82.9260,1027.38,1111122 
COMPS,ioos:station:USF.COMPS:C10:1,2016-06-05T14:05:00Z,27.1690,-82.9260,1027.38,1111122 
COMPS,ioos:station:USF.COMPS:C10:1,2016-06-05T14:35:00Z,27.1690,-82.9260,1027.7,1111122 
COMPS,ioos:station:USF.COMPS:C10:1,2016-06-05T15:05:00Z,27.1690,-82.9260,1027.8,1111122 
COMPS,ioos:station:USF.COMPS:C10:1,2016-06-05T15:35:00Z,27.1690,-82.9260,1027.88,1111122 
COMPS,ioos:station:USF.COMPS:C10:1,2016-06-05T16:05:00Z,27.1690,-82.9260,1027.51,1111122 
COMPS,ioos:station:USF.COMPS:C10:1,2016-06-05T16:35:00Z,27.1690,-82.9260,1027.88,1111122 
COMPS,ioos:station:USF.COMPS:C10:1,2016-06-05T17:05:00Z,27.1690,-82.9260,1027.66,1111122 
COMPS,ioos:station:USF.COMPS:C10:1,2016-06-05T17:35:00Z,27.1690,-82.9260,1027.04,1111122 
COMPS,ioos:station:USF.COMPS:C10:1,2016-06-05T18:05:00Z,27.1690,-82.9260,1026.99,1111122 
COMPS,ioos:station:USF.COMPS:C10:1,2016-06-05T18:35:00Z,27.1690,-82.9260,1027.03,1111122 
COMPS,ioos:station:USF.COMPS:C10:1,2016-06-05T19:05:00Z,27.1690,-82.9260,1026.91,1111122 
COMPS,ioos:station:USF.COMPS:C10:1,2016-06-05T19:35:00Z,27.1690,-82.9260,1026.67,1111122 
COMPS,ioos:station:USF.COMPS:C10:1,2016-06-05T20:05:00Z,27.1690,-82.9260,1026.44,1111122 
COMPS,ioos:station:USF.COMPS:C10:1,2016-06-05T20:35:00Z,27.1690,-82.9260,1026.32,1111122 
COMPS,ioos:station:USF.COMPS:C10:1,2016-06-05T21:05:00Z,27.1690,-82.9260,1026.04,1111122 
COMPS,ioos:station:USF.COMPS:C10:1,2016-06-05T21:35:00Z,27.1690,-82.9260,1026.08,1111122 
COMPS,ioos:station:USF.COMPS:C10:1,2016-06-05T22:05:00Z,27.1690,-82.9260,1026.5,1111122 
COMPS,ioos:station:USF.COMPS:C10:1,2016-06-05T22:35:00Z,27.1690,-82.9260,1026.17,1111122 
COMPS,ioos:station:USF.COMPS:C10:1,2016-06-05T23:05:00Z,27.1690,-82.9260,1026.32,1111122 
COMPS,ioos:station:USF.COMPS:C10:1,2016-06-05T23:35:00Z,27.1690,-82.9260,1027.01,1111122 
COMPS,ioos:station:USF.COMPS:C10:1,2016-06-06T00:05:00Z,27.1690,-82.9260,1027.2,1111122 
COMPS,ioos:station:USF.COMPS:C10:1,2016-06-06T00:35:00Z,27.1690,-82.9260,1027.13,1111122 
COMPS,ioos:station:USF.COMPS:C10:1,2016-06-06T02:05:00Z,27.1690,-82.9260,1027.21,1111122 
COMPS,ioos:station:USF.COMPS:C10:1,2016-06-06T02:35:00Z,27.1690,-82.9260,1027.04,1111122 
COMPS,ioos:station:USF.COMPS:C10:1,2016-06-06T03:05:00Z,27.1690,-82.9260,1028.08,1111122 
COMPS,ioos:station:USF.COMPS:C10:1,2016-06-06T03:35:00Z,27.1690,-82.9260,1027.61,1111122 
COMPS,ioos:station:USF.COMPS:C10:1,2016-06-06T04:05:00Z,27.1690,-82.9260,1027.43,1111122 
COMPS,ioos:station:USF.COMPS:C10:1,2016-06-06T04:35:00Z,27.1690,-82.9260,1027.58,1111122 
COMPS,ioos:station:USF.COMPS:C10:1,2016-06-06T05:05:00Z,27.1690,-82.9260,1027.32,1111122 
COMPS,ioos:station:USF.COMPS:C10:1,2016-06-06T05:35:00Z,27.1690,-82.9260,1027.06,1111122 
COMPS,ioos:station:USF.COMPS:C10:1,2016-06-06T06:05:00Z,27.1690,-82.9260,1026.82,1111122 
COMPS,ioos:station:USF.COMPS:C10:1,2016-06-06T06:35:00Z,27.1690,-82.9260,1026.73,1111122 
COMPS,ioos:station:USF.COMPS:C10:1,2016-06-06T07:05:00Z,27.1690,-82.9260,1026.65,1111122 
COMPS,ioos:station:USF.COMPS:C10:1,2016-06-06T07:35:00Z,27.1690,-82.9260,1026.56,1111122 
COMPS,ioos:station:USF.COMPS:C10:1,2016-06-06T08:05:00Z,27.1690,-82.9260,1026.18,1111122 
COMPS,ioos:station:USF.COMPS:C10:1,2016-06-06T08:35:00Z,27.1690,-82.9260,1025.57,1111122 
COMPS,ioos:station:USF.COMPS:C10:1,2016-06-06T09:05:00Z,27.1690,-82.9260,1025.17,1111122 
COMPS,ioos:station:USF.COMPS:C10:1,2016-06-06T09:35:00Z,27.1690,-82.9260,1025.18,1111122 
COMPS,ioos:station:USF.COMPS:C10:1,2016-06-06T10:05:00Z,27.1690,-82.9260,1025.59,1111122 
COMPS,ioos:station:USF.COMPS:C10:1,2016-06-06T10:35:00Z,27.1690,-82.9260,1025.77,1111122 
COMPS,ioos:station:USF.COMPS:C10:1,2016-06-06T11:05:00Z,27.1690,-82.9260,1024.99,1111122 
COMPS,ioos:station:USF.COMPS:C10:1,2016-06-06T11:35:00Z,27.1690,-82.9260,1024.95,1111122 
COMPS,ioos:station:USF.COMPS:C10:1,2016-06-06T12:05:00Z,27.1690,-82.9260,1024.99,1111122 
COMPS,ioos:station:USF.COMPS:C10:1,2016-06-06T12:35:00Z,27.1690,-82.9260,1024.93,1111122 
COMPS,ioos:station:USF.COMPS:C10:1,2016-06-06T13:05:00Z,27.1690,-82.9260,1024.94,1111122 
COMPS,ioos:station:USF.COMPS:C10:1,2016-06-06T13:35:00Z,27.1690,-82.9260,1024.89,1111122 
COMPS,ioos:station:USF.COMPS:C10:1,2016-06-06T14:05:00Z,27.1690,-82.9260,1025.4,1111122 
COMPS,ioos:station:USF.COMPS:C10:1,2016-06-06T14:35:00Z,27.1690,-82.9260,1025.28,1111122 
COMPS,ioos:station:USF.COMPS:C10:1,2016-06-06T15:05:00Z,27.1690,-82.9260,1025.24,1111122 
COMPS,ioos:station:USF.COMPS:C10:1,2016-06-06T15:35:00Z,27.1690,-82.9260,1025.15,1111122 
COMPS,ioos:station:USF.COMPS:C10:1,2016-06-06T16:05:00Z,27.1690,-82.9260,1025.17,1111122 
COMPS,ioos:station:USF.COMPS:C10:1,2016-06-06T16:35:00Z,27.1690,-82.9260,1024.79,1111122 
COMPS,ioos:station:USF.COMPS:C10:1,2016-06-06T17:05:00Z,27.1690,-82.9260,1024.45,1111122 
COMPS,ioos:station:USF.COMPS:C10:1,2016-06-06T17:35:00Z,27.1690,-82.9260,1024.16,1111122 
COMPS,ioos:station:USF.COMPS:C10:1,2016-06-06T18:05:00Z,27.1690,-82.9260,1023.75,1111122 
COMPS,ioos:station:USF.COMPS:C10:1,2016-06-06T18:35:00Z,27.1690,-82.9260,1023.31,1111122 
COMPS,ioos:station:USF.COMPS:C10:1,2016-06-06T20:05:00Z,27.1690,-82.9260,1022.48,1111122 
COMPS,ioos:station:USF.COMPS:C10:1,2016-06-06T20:35:00Z,27.1690,-82.9260,1022.35,1111122 
COMPS,ioos:station:USF.COMPS:C10:1,2016-06-06T21:05:00Z,27.1690,-82.9260,1021.99,1111122 
COMPS,ioos:station:USF.COMPS:C10:1,2016-06-06T21:35:00Z,27.1690,-82.9260,1022.03,1111122 
COMPS,ioos:station:USF.COMPS:C10:1,2016-06-06T22:05:00Z,27.1690,-82.9260,1022.03,1111122 
COMPS,ioos:station:USF.COMPS:C10:1,2016-06-06T22:35:00Z,27.1690,-82.9260,1021.96,1111122 
COMPS,ioos:station:USF.COMPS:C10:1,2016-06-06T23:05:00Z,27.1690,-82.9260,1021.32,1111122 
COMPS,ioos:station:USF.COMPS:C10:1,2016-06-06T23:35:00Z,27.1690,-82.9260,1021.89,1111122 
COMPS,ioos:station:USF.COMPS:C10:1,2016-06-07T00:05:00Z,27.1690,-82.9260,1022.24,1111122 
COMPS,ioos:station:USF.COMPS:C10:1,2016-06-07T00:35:00Z,27.1690,-82.9260,1022.55,1111122 
COMPS,ioos:station:USF.COMPS:C10:1,2016-06-07T01:05:00Z,27.1690,-82.9260,1022.54,1111122 
COMPS,ioos:station:USF.COMPS:C10:1,2016-06-07T01:35:00Z,27.1690,-82.9260,1022.75,1111122 
COMPS,ioos:station:USF.COMPS:C10:1,2016-06-07T02:05:00Z,27.1690,-82.9260,1022.97,1111122 
COMPS,ioos:station:USF.COMPS:C10:1,2016-06-07T02:35:00Z,27.1690,-82.9260,1023.16,1111122 
COMPS,ioos:station:USF.COMPS:C10:1,2016-06-07T04:05:00Z,27.1690,-82.9260,1023.77,1111122 
COMPS,ioos:station:USF.COMPS:C10:1,2016-06-07T04:35:00Z,27.1690,-82.9260,1024.18,1111122 
COMPS,ioos:station:USF.COMPS:C10:1,2016-06-07T05:05:00Z,27.1690,-82.9260,1024.05,1111122 
COMPS,ioos:station:USF.COMPS:C10:1,2016-06-07T05:35:00Z,27.1690,-82.9260,1023.87,1111122 
COMPS,ioos:station:USF.COMPS:C10:1,2016-06-07T06:05:00Z,27.1690,-82.9260,1023.63,1111122 
COMPS,ioos:station:USF.COMPS:C10:1,2016-06-07T06:35:00Z,27.1690,-82.9260,1023.32,1111122 